Temp_Advection
nan nan nan nan nan nan nan nan nan nan nan nan nan nan nan nan nan nan nan nan nan nan nan nan nan nan nan nan nan nan nan nan nan nan nan nan nan nan
nan -0 -1 -1 -1 -1 -1 -0 0 0 -1 -1 -1 -0 -0 -0 -0 0 0 -0 -0 -0 0 1 -0 -0 0 0 0 0 1 0 0 0 0 0 1 nan
nan -1 -1 -1 -0 -0 -0 -1 -0 0 -0 -1 -1 -0 -0 -0 -0 -0 -0 0 0 0 0 -0 -0 -0 0 0 0 0 1 0 -0 0 0 0 0 nan
nan -1 -1 -1 -1 -0 -0 -0 -0 0 0 -0 -1 -0 -0 -0 -0 -0 -0 0 0 0 -1 -1 -0 1 0 0 0 1 1 0 -0 0 0 -0 0 nan
nan -1 -1 -1 -0 -0 -0 -0 -0 -0 0 0 -0 -1 -0 -0 -0 -0 0 0 -0 -0 -0 -0 0 0 -0 -0 0 0 0 0 0 0 0 0 -0 nan
nan -0 -0 -0 -0 -0 -0 -0 -0 -0 0 0 1 0 -1 0 -1 -1 1 0 -0 -1 -1 0 -0 -0 -0 0 -0 -0 0 0 1 1 0 -0 0 nan
nan -0 -0 -0 0 0 -0 -0 -0 0 0 0 1 0 -0 -1 -1 -0 0 -0 -0 -0 -0 -1 -1 -0 0 0 -0 -0 0 1 1 0 0 0 0 nan
nan -0 -0 -0 -0 0 0 -0 0 0 0 0 0 -0 -1 -0 -0 -0 -0 -0 0 0 -1 -1 -0 -0 -0 -0 -0 0 1 1 0 0 -0 -0 -0 nan
nan -1 -0 -0 -0 -0 0 0 0 0 0 -0 0 -0 -0 -0 -0 -0 -0 -0 0 0 -0 -0 -0 -1 -1 -0 0 0 0 -0 0 0 0 0 -0 nan
nan -0 -0 -0 -0 0 0 0 0 0 0 1 1 -0 -0 -0 -0 0 0 -0 -0 -0 0 1 -0 -1 -1 -0 0 0 -0 -0 0 0 0 0 0 nan
nan -0 -0 -0 -0 0 0 0 0 0 0 1 1 0 -0 -0 0 -0 -0 -0 -0 0 1 -0 -1 -0 -0 0 0 -0 -0 -0 -0 0 0 0 0 nan
nan -1 -1 -1 -1 1 1 0 -0 0 0 0 -0 -0 0 0 0 0 0 0 1 0 0 1 0 0 0 -0 -0 0 0 -0 0 1 1 0 0 nan
nan -0 -0 -1 -1 -1 -0 -0 0 0 1 1 1 0 0 0 0 0 0 1 1 0 1 1 0 0 0 -0 -0 -0 -0 0 0 0 0 0 0 nan
nan -0 -0 -0 -1 -0 -0 -0 0 1 1 1 0 0 0 0 1 0 0 0 1 0 0 1 -0 -1 -0 -1 -1 -0 0 0 -0 -0 1 1 0 nan
nan -0 -0 -0 -0 -0 -0 0 0 0 0 0 0 0 -0 0 0 -0 -0 -0 -0 0 0 -0 -0 -0 -0 -1 -1 -0 -1 -0 1 0 1 0 -0 nan
nan -0 -0 -0 -0 -0 -0 0 0 0 0 0 0 0 0 0 -0 -0 -0 0 0 0 -0 -0 -0 0 0 0 -1 -1 -0 -1 -0 -0 -1 -1 -0 nan
nan -0 -0 -0 -0 -0 -0 -0 -0 -0 0 0 0 0 -0 -0 -0 -0 -0 -0 -0 0 0 0 -0 -0 -0 -0 -0 -0 -0 -1 -1 -0 -1 -3 -3 nan
nan -0 -0 0 0 -0 -0 -0 -0 -0 -0 -0 -0 -0 -0 -0 -0 -0 -0 -0 -0 -0 -0 -0 -0 -1 -1 -0 0 0 1 -0 -1 -1 -1 -1 -3 nan
nan 0 -0 -0 -0 0 0 -0 -0 -0 -0 -0 -0 -0 -0 -0 -0 -0 -0 -0 -0 -0 -1 -1 -1 -1 -1 -1 -2 -0 0 0 -0 -0 -0 -0 -1 nan
nan 0 0 -0 -0 0 -0 -0 -0 -0 -0 -0 -0 -0 -0 -0 -0 -0 -0 -0 -0 -0 -0 0 0 -0 0 0 -0 -0 0 0 -0 -1 -0 -1 -1 nan
nan -0 0 0 0 0 0 0 -0 -0 -0 -0 -0 -0 -0 -0 -0 -0 -0 -0 -0 -0 0 -0 -0 -0 -0 0 -0 -1 0 1 0 0 -0 -1 -2 nan
nan 0 0 0 0 0 0 0 -0 -0 -0 -0 -0 -0 0 0 -0 -0 -0 -0 -0 -0 -0 -0 -0 -0 0 0 -0 -1 -1 0 0 0 0 0 0 nan
nan nan nan nan nan nan nan nan nan nan nan nan nan nan nan nan nan nan nan nan nan nan nan nan nan nan nan nan nan nan nan nan nan nan nan nan nan nan
Wind_Speed
32 33 33 37 41 43 39 39 36 27 27 35 36 38 38 38 37 34 38 36 32 33 30 31 30 29 32 35 34 32 33 31 31 31 30 30 31 32
29 31 31 32 34 37 39 39 35 34 30 34 35 31 28 31 36 36 36 35 36 36 35 34 30 30 33 34 34 33 33 35 33 31 31 32 32 33
30 30 30 30 31 32 33 35 36 34 35 37 36 33 35 31 29 31 31 30 31 31 27 29 32 29 28 31 31 35 35 35 33 33 33 33 34 34
26 30 30 30 29 30 30 31 33 32 32 38 34 32 30 30 32 33 34 33 31 32 34 32 34 34 36 36 37 37 35 31 34 36 35 35 36 35
27 28 27 24 26 26 27 29 30 30 30 33 35 33 33 32 30 30 33 34 35 33 31 31 33 33 33 33 36 35 37 37 34 34 36 36 33 35
23 21 23 20 22 22 23 25 26 28 29 31 34 34 33 33 31 33 34 32 33 32 33 33 32 29 31 31 30 34 35 36 36 36 34 36 38 40
13 13 17 15 16 17 19 21 23 25 27 29 29 27 29 32 30 30 30 30 30 30 31 33 34 31 30 27 26 25 26 30 33 34 35 38 44 41
14 13 12 12 13 15 16 18 18 20 23 26 26 27 26 26 27 27 29 32 33 27 27 28 23 24 24 23 25 28 29 26 25 25 28 27 26 29
17 17 15 15 16 16 17 17 19 21 23 25 26 27 28 26 25 28 30 29 31 29 27 30 26 27 23 22 22 23 24 26 27 27 27 27 28 31
20 19 19 17 16 15 16 18 20 22 25 26 27 28 29 27 28 29 29 29 29 29 28 32 31 34 31 30 28 24 24 26 25 28 29 31 31 33
22 21 22 20 19 16 17 18 20 22 25 24 24 26 29 31 31 33 31 31 34 33 35 35 36 35 36 33 31 29 29 27 27 27 29 30 31 32
15 19 21 22 22 20 20 20 22 23 26 26 26 24 28 28 28 28 30 31 35 33 26 26 25 27 24 26 27 27 23 23 25 26 27 29 32 32
6 7 9 13 14 15 14 16 18 21 23 23 20 18 18 18 20 19 21 21 20 21 19 14 13 16 16 13 16 18 21 24 25 28 30 32 34 35
4 5 5 6 7 6 7 11 17 16 16 16 16 13 12 13 13 13 15 17 17 15 19 16 17 16 18 21 25 26 25 26 28 30 32 32 31 32
7 7 8 7 5 5 5 5 6 8 9 9 9 9 10 10 9 9 7 6 8 10 11 13 14 17 19 22 25 27 27 25 24 25 23 22 24 26
8 8 9 8 6 5 4 5 4 5 7 7 8 8 7 6 7 7 7 6 7 8 10 12 15 17 18 19 20 23 22 21 20 19 20 23 24 24
7 8 7 7 6 4 3 3 1 0 2 3 3 3 3 3 4 5 5 6 6 7 8 10 12 15 16 18 21 19 20 20 17 19 23 27 25 24
8 8 9 8 7 6 5 5 4 4 4 4 4 5 5 5 5 5 6 7 7 7 7 8 9 13 15 14 15 11 14 16 14 22 24 26 29 29
8 9 8 6 6 6 6 5 5 5 6 6 6 7 7 7 6 6 7 8 8 10 11 12 12 12 13 16 19 9 11 16 21 24 24 27 31 31
7 6 7 6 5 3 3 4 5 6 7 8 8 9 9 9 8 7 8 9 9 11 13 7 8 10 12 15 18 20 13 17 19 23 24 26 28 28
7 6 6 5 4 4 3 3 5 6 7 7 9 10 10 9 9 9 9 8 9 11 12 13 9 9 12 15 16 18 14 11 13 16 18 24 26 30
8 7 6 5 4 4 4 2 4 6 7 7 8 8 9 9 9 10 10 11 11 11 12 13 7 9 10 13 17 18 15 10 5 8 12 16 20 17
9 8 7 5 5 5 5 3 3 5 7 7 8 8 9 9 9 10 11 11 12 11 12 12 11 11 13 12 11 10 10 8 11 11 10 13 15 16
Wind_Direction
263 258 253 252 254 254 250 248 248 250 252 252 250 249 253 255 258 256 254 253 255 258 261 263 258 253 252 252 255 260 258 263 261 258 258 257 256 260
267 263 258 253 250 252 255 254 250 251 253 256 258 262 264 259 256 258 259 257 260 259 256 256 259 258 253 251 251 255 259 265 259 257 258 258 258 256
267 261 254 252 252 250 250 250 252 250 252 261 261 260 258 256 249 252 257 255 260 257 251 258 257 255 253 249 250 254 259 262 257 257 255 257 258 258
271 266 258 253 250 250 250 248 247 249 252 260 263 264 261 258 261 250 252 257 256 258 264 268 260 260 255 254 256 256 253 262 261 257 258 256 258 260
272 266 259 250 253 253 249 246 245 249 252 258 263 265 262 261 258 256 255 255 256 260 261 265 263 264 259 265 260 258 254 262 259 256 259 259 259 260
282 256 250 250 255 256 251 246 247 249 252 254 256 258 259 259 260 262 265 261 262 264 268 269 265 268 266 263 271 262 262 264 260 265 259 261 264 259
286 270 259 256 256 258 257 256 252 252 252 253 257 249 250 258 259 268 270 277 275 276 271 268 267 269 265 259 259 255 259 266 264 263 261 256 267 264
288 290 279 275 269 265 261 255 258 259 256 254 259 253 257 263 268 266 267 267 272 277 278 268 262 268 267 266 264 261 260 260 269 267 270 255 265 260
281 279 275 271 265 261 260 257 253 250 252 255 259 261 262 263 263 266 264 263 269 272 278 283 280 280 281 281 266 268 255 260 269 261 263 264 267 264
275 276 274 272 269 267 260 254 252 253 252 256 257 258 261 256 257 257 260 260 263 266 269 274 272 280 283 283 281 273 268 267 272 261 260 260 260 259
263 264 268 269 265 261 256 251 254 258 260 256 261 265 261 258 259 256 260 267 266 263 271 271 272 276 273 275 274 274 272 269 269 263 261 262 263 263
267 270 271 269 268 260 258 262 266 267 269 269 271 264 256 254 255 255 260 259 262 264 260 250 249 252 260 265 267 269 268 266 266 263 262 263 264 266
267 268 283 284 286 290 280 264 255 255 247 243 242 243 248 250 255 255 250 242 238 245 245 243 247 246 246 248 258 264 266 268 266 267 268 269 270 270
318 318 322 321 301 283 268 266 264 243 235 237 240 244 241 248 251 249 247 248 247 252 254 263 271 268 267 269 271 273 272 274 276 273 271 271 272 272
330 325 316 313 308 295 261 255 247 246 242 242 244 253 263 265 274 285 295 286 263 256 261 265 267 273 277 277 277 276 280 275 269 270 267 267 270 270
341 343 344 346 339 333 292 281 254 232 236 243 250 255 248 228 222 225 230 241 255 261 269 272 271 273 274 279 281 283 287 285 280 287 283 279 278 278
338 339 338 333 334 341 355 7 15 310 248 255 247 242 257 257 252 251 267 280 278 270 267 276 282 284 286 286 282 285 285 282 282 286 292 293 293 294
318 319 321 327 335 343 350 354 354 355 345 326 311 306 302 294 286 285 287 301 313 314 309 298 292 292 291 287 289 284 283 287 302 306 298 297 298 305
304 308 309 310 312 319 333 343 343 341 340 336 334 322 314 307 301 302 312 322 332 335 335 330 328 328 320 305 312 310 300 296 295 298 298 300 300 310
294 290 290 288 289 290 305 316 319 324 325 327 330 327 319 315 312 310 318 323 327 329 324 316 306 303 297 302 299 298 299 305 300 305 312 313 315 318
298 287 277 276 274 265 272 301 321 320 320 323 328 328 323 319 316 315 314 317 316 314 321 326 322 310 301 294 298 307 324 320 313 320 329 326 329 329
293 285 278 269 243 238 242 269 308 318 323 320 319 321 325 321 316 316 315 314 314 317 318 326 336 311 300 303 302 313 327 339 325 322 338 333 332 320
284 281 273 256 241 228 236 255 293 313 323 325 325 324 327 331 325 318 314 312 312 317 321 330 332 320 318 314 321 331 332 341 348 351 358 350 342 338
Height
1416 1418 1418 1420 1423 1425 1428 1431 1434 1434 1434 1436 1441 1444 1447 1449 1452 1455 1460 1460 1464 1466 1465 1467 1468 1469 1470 1472 1474 1476 1477 1479 1481 1482 1484 1485 1488 1489
1409 1409 1410 1412 1414 1416 1419 1422 1425 1427 1427 1430 1433 1436 1440 1441 1443 1446 1449 1452 1455 1453 1454 1457 1460 1459 1461 1463 1464 1466 1468 1470 1471 1473 1475 1476 1478 1480
1402 1402 1402 1404 1405 1406 1409 1413 1416 1419 1420 1421 1426 1428 1431 1433 1435 1437 1438 1440 1442 1445 1444 1448 1450 1449 1452 1454 1455 1456 1457 1460 1461 1464 1465 1467 1468 1470
1394 1394 1394 1397 1397 1398 1400 1403 1407 1410 1415 1413 1419 1420 1422 1426 1427 1428 1429 1430 1432 1435 1437 1437 1439 1440 1442 1443 1444 1445 1448 1450 1452 1454 1456 1457 1459 1461
1387 1387 1388 1389 1391 1391 1393 1395 1399 1403 1407 1408 1408 1413 1415 1417 1418 1418 1419 1421 1422 1426 1427 1427 1429 1431 1432 1433 1434 1435 1437 1440 1441 1443 1445 1448 1449 1451
1381 1380 1382 1383 1384 1385 1387 1389 1392 1396 1398 1400 1401 1404 1407 1409 1411 1410 1411 1413 1413 1418 1419 1418 1421 1421 1423 1423 1424 1426 1428 1430 1431 1432 1434 1437 1438 1440
1378 1377 1377 1377 1378 1380 1382 1384 1386 1389 1392 1393 1394 1398 1399 1401 1401 1405 1404 1406 1407 1408 1408 1408 1411 1411 1413 1414 1415 1418 1419 1420 1421 1422 1423 1425 1426 1426
1374 1374 1373 1373 1374 1376 1377 1379 1381 1383 1385 1388 1389 1390 1392 1394 1395 1398 1398 1401 1399 1401 1400 1399 1401 1401 1403 1405 1407 1408 1409 1410 1411 1411 1412 1412 1413 1415
1370 1370 1370 1370 1370 1370 1372 1374 1376 1378 1380 1382 1382 1384 1386 1389 1390 1391 1392 1391 1392 1394 1394 1391 1394 1393 1396 1397 1398 1398 1399 1401 1401 1402 1404 1404 1404 1404
1364 1364 1365 1366 1366 1367 1368 1368 1370 1371 1373 1375 1375 1376 1378 1380 1382 1383 1383 1383 1385 1385 1386 1384 1386 1386 1387 1388 1388 1388 1390 1391 1392 1392 1393 1393 1394 1393
1359 1359 1359 1360 1361 1363 1363 1363 1363 1364 1366 1367 1368 1369 1370 1372 1374 1375 1374 1375 1376 1377 1377 1377 1377 1378 1379 1378 1379 1380 1380 1380 1380 1381 1382 1382 1383 1382
1354 1354 1355 1355 1356 1358 1359 1359 1359 1359 1359 1359 1360 1362 1363 1364 1365 1366 1366 1367 1369 1368 1368 1369 1368 1370 1370 1369 1370 1369 1370 1371 1371 1372 1373 1372 1373 1373
1354 1353 1352 1351 1351 1351 1352 1353 1353 1353 1353 1354 1355 1355 1355 1355 1358 1358 1357 1359 1359 1360 1361 1362 1360 1362 1363 1363 1363 1365 1366 1365 1366 1366 1365 1364 1364 1363
1355 1353 1352 1351 1350 1349 1349 1349 1349 1349 1350 1350 1351 1350 1352 1352 1353 1353 1353 1353 1354 1354 1353 1355 1355 1356 1357 1358 1358 1358 1358 1357 1355 1355 1354 1354 1354 1353
1357 1356 1354 1352 1351 1350 1348 1348 1347 1348 1349 1349 1349 1349 1349 1347 1348 1349 1348 1347 1350 1351 1352 1352 1353 1352 1352 1352 1352 1351 1349 1349 1347 1346 1346 1345 1345 1345
1358 1356 1355 1353 1352 1350 1349 1348 1348 1347 1348 1348 1348 1348 1348 1348 1349 1349 1348 1348 1349 1349 1348 1348 1348 1348 1347 1346 1345 1343 1343 1341 1339 1339 1338 1337 1336 1336
1357 1357 1356 1355 1353 1351 1351 1350 1350 1349 1349 1349 1349 1348 1348 1348 1347 1347 1346 1346 1346 1346 1346 1345 1344 1343 1342 1340 1338 1338 1337 1335 1335 1334 1331 1328 1328 1327
1357 1356 1355 1354 1353 1352 1351 1351 1350 1350 1350 1349 1349 1348 1347 1347 1346 1345 1344 1344 1343 1343 1342 1342 1340 1339 1337 1336 1334 1332 1332 1331 1330 1329 1326 1322 1318 1316
1356 1356 1354 1353 1353 1353 1353 1352 1352 1351 1350 1350 1349 1348 1347 1346 1345 1344 1344 1342 1342 1341 1341 1340 1338 1337 1336 1334 1330 1329 1328 1327 1325 1321 1318 1314 1309 1306
1354 1353 1353 1352 1351 1351 1352 1352 1352 1352 1351 1350 1349 1348 1347 1346 1345 1343 1342 1341 1340 1339 1338 1337 1337 1336 1334 1332 1329 1326 1324 1321 1318 1313 1309 1305 1300 1297
1352 1351 1350 1351 1351 1350 1350 1351 1352 1351 1350 1350 1349 1348 1347 1346 1345 1343 1341 1339 1338 1336 1335 1334 1333 1332 1330 1328 1324 1320 1318 1316 1312 1308 1305 1299 1293 1288
1352 1350 1349 1349 1348 1349 1348 1348 1349 1349 1349 1348 1347 1346 1346 1344 1343 1342 1340 1338 1336 1333 1331 1329 1328 1327 1325 1322 1320 1316 1312 1311 1309 1307 1303 1299 1294 1288
1350 1349 1349 1347 1349 1349 1348 1347 1346 1346 1347 1346 1345 1344 1343 1342 1342 1340 1338 1335 1333 1330 1328 1325 1323 1322 1319 1316 1314 1312 1310 1307 1304 1302 1300 1296 1291 1287